Content
SEND FEEDBACK

Daily
Averages
Monthly
Summary
United States of America

RAHWAY, NEW JERSEY


Home > North America > United States > New Jersey
Elevation: 20 feet     Latitude: 40 36N     Longitude: 074 16W

WEATHER
 
SELECT A DAY
Number of Records: 187,603;   Date Range: 1/1/95 - 4/18/14
 
SHARE

PRINT THIS DATA

[ ← Previous Day ]
WEATHER ALMANAC - APRIL 27, 2013
[ Next Day → ]
[ °C ]   °F
Weather ElementAverageHighLow
Temperature57.6 °F68 °F (1:51 pm)45 °F (3:51 am)
Dewpoint28 °F30.9 °F (6:51 pm)23 °F (2:51 pm)
Humidity34.4 %53 % (3:51 am)18 % (2:51 pm)
Barometer30.36 in30.43 in (7:51 am)30.29 in (4:51 pm)
Wind Speed7.2 mph10.4 mph (5:51 pm)
Weather ElementAverage
Visibility10 mi
Wind DirectionENE (75.7 °)

Weather ElementTotal
Precipitation---
Heating Degree Days8.5 (Base 65)
Growing Degree Days6.5 (Base 50)
Averaged from 23 records on April 27, 2013
WEATHER CONDITIONS BREAKOUT
WIND DIRECTION BREAKOUT
WEATHER BY HOUR - APRIL 27, 2013
[ °C ]   °F
Local TimeTemperatureDewpointHumidityBarometerVisibilityWind DirectionWind SpeedGust SpeedPrecipitationEventsConditions
1:51 AM48.9 °F30.0 °F48 %30.42 in10.0 miNNE (20°)9.2 mphPartly Cloudy
2:51 AM48.0 °F30.0 °F50 %30.41 in10.0 miNorth (10°)8.1 mphClear
3:51 AM45.0 °F28.9 °F53 %30.41 in10.0 miNNE (20°)6.9 mphClear
4:51 AM46.0 °F28.0 °F50 %30.41 in10.0 miNNE (20°)5.8 mphClear
5:51 AM45.0 °F28.0 °F52 %30.41 in10.0 miNorth (10°)5.8 mphPartly Cloudy
6:51 AM46.9 °F30.0 °F52 %30.42 in10.0 miNNE (30°)5.8 mphScattered Clouds
7:51 AM51.1 °F28.9 °F43 %30.43 in10.0 miNNE (30°)9.2 mphMostly Cloudy
8:51 AM54.0 °F28.0 °F37 %30.43 in10.0 miNE (40°)8.1 mphMostly Cloudy
9:51 AM57.9 °F27.0 °F31 %30.42 in10.0 miNorth (10°)6.9 mphMostly Cloudy
10:51 AM60.1 °F27.0 °F28 %30.42 in10.0 miVariable4.6 mphScattered Clouds
11:51 AM63.0 °F26.1 °F25 %30.40 in10.0 miVariable4.6 mphScattered Clouds
12:51 PM66.9 °F26.1 °F21 %30.37 in10.0 miNNE (20°)8.1 mphPartly Cloudy
1:51 PM68.0 °F25.0 °F20 %30.35 in10.0 miNorth (10°)6.9 mphPartly Cloudy
2:51 PM68.0 °F23.0 °F18 %30.32 in10.0 miEast (100°)8.1 mphPartly Cloudy
3:51 PM68.0 °F24.1 °F19 %30.30 in10.0 miNE (50°)5.8 mphPartly Cloudy
4:51 PM68.0 °F26.1 °F21 %30.29 in10.0 miSSE (160°)8.1 mphPartly Cloudy
5:51 PM66.0 °F30.0 °F26 %30.29 in10.0 miSSE (160°)10.4 mphScattered Clouds
6:51 PM64.0 °F30.9 °F29 %30.29 in10.0 miSSE (160°)9.2 mphScattered Clouds
7:51 PM62.1 °F30.9 °F31 %30.29 in10.0 miSouth (170°)9.2 mphScattered Clouds
8:51 PM59.0 °F28.9 °F32 %30.31 in10.0 miSouth (180°)8.1 mphPartly Cloudy
9:51 PM57.0 °F30.0 °F36 %30.32 in10.0 miSouth (180°)5.8 mphPartly Cloudy
10:51 PM55.9 °F28.0 °F34 %30.31 in10.0 miSouth (180°)5.8 mphPartly Cloudy
11:51 PM55.0 °F28.0 °F35 %30.31 in10.0 miSouth (180°)5.8 mphPartly Cloudy
Hourly data recorded from KEWR, located 7.68 miles away from Rahway, New Jersey







STORIES FROM OUR PARTNERS